sat.trackr.live / text

‹ back to catalog

STARLINK-2032

NORAD 47649 · 2021-012AF

PAYLOAD ACTIVE UNKNOWN

§ Identity

Operator
Country
US
Launch date
2021-02-16
Launch site
AFETR
Launch vehicle
Mass (kg)
RCS (m²)

Purposes: comms

External: N2YO · Heavens-Above · Gunter

§ Orbital elements

Epoch: 2026-07-19T00:31:29.724384Z

Period
88.03 min
Inclination
53.0144°
Eccentricity
0.0011451
Mean motion
16.35836375 rev/d
Perigee alt
169.4 km
Apogee alt
184.4 km
Semi-major
6,555.0 km
B*
6.4148e-4
RAAN
71.8479°
Arg perigee
270.6530°
Mean anomaly
89.3202°
Rev number
30,160

§ Raw data

STARLINK-20321 47649U 21012AF  26200.02187181  .05582092  12246-4  64148-3 0  99902 47649  53.0144  71.8479 0011451 270.6530  89.3202 16.35836375301601

JSON: /api/v1/satellites/47649 · /tle

For live sub-satellite position, see the globe view (requires WebGL).

§ Visibility from observer

Set your observer location to see the next 7 days of passes ≥ 10°. The values pass through the URL so the page stays shareable.

No JS? Fill the form by hand. The geolocation button needs JavaScript.